Location: *
(43.4667°N, 11.6833°E)
Time: 06:41:17
(UTC+00:00)

BREEZE-M DEB (TANK) - Pass Details

Date: 19 July 2019
Orbit: 295 x 18468 km, 53.0° (Epoch: 23 August)

Event Time Altitude Azimuth Distance (km) Brightness Sun altitude
Rises 19:29:04 0° 302° (WNW) 3,750 9.1 -6.8°
Reaches altitude 10° 19:33:08 10° 283° (WNW) 1,778 6.1 -7.4°
Maximum altitude 19:35:22 17° 239° (WSW) 1,046 4.0 -7.7°
Drops below altitude 10° 19:36:58 10° 192° (SSW) 1,207 3.8 -8.0°
Enters shadow 19:37:52 - 176° (S) 1,535 4.2 -8.1°
